Regional Weather Roundup
Issued by NWS

Home | Current Version | Previous Version | Text Only | Print | Product List | Glossary Off
Versions: 1 2 3 4 5 6 7 8 9 10 11 12 13 14 15 16 17 18 19 20 21 22 23 24 25 26 27 28 29 30 31 32 33 34 35 36 37 38 39 40 41 42 43 44 45 46 47 48 49 50

001
ASUS45 KCYS 060310
RWRWY

WYOMING REGIONAL WEATHER ROUNDUP
NATIONAL WEATHER SERVICE CHEYENNE WY
900 PM MDT THU MAY 05 2016

NOTE:  "FAIR" INDICATES FEW OR NO CLOUDS BELOW 12,000 FEET
WITH NO SIGNIFICANT WEATHER AND/OR OBSTRUCTIONS TO VISIBILITY.

WYZ001-060400-
YELLOWSTONE NATIONAL PARK

CITY           SKY/WX    TMP DP  RH WIND       PRES   REMARKS
LK YELLOWSTONE   N/A     43  31  62 CALM      30.13R
W YELLOWSTONE  NOT AVBL

$$
WYZ002>013-054>058-071-098>099-060400-
NORTHERN WYOMING

CITY           SKY/WX    TMP DP  RH WIND       PRES   REMARKS
JACKSON        FAIR      61  30  31 CALM      30.02R
CODY           FAIR      66  30  26 SE7       29.92S
GREYBULL       FAIR      74  29  19 S5        29.86R
WORLAND        FAIR      68  41  37 SE12      29.88R
SHERIDAN       FAIR      60  45  57 SW10      29.89R
BUFFALO        FAIR      63  39  41 W7        29.97R
GILLETTE       FAIR      52  44  74 SW5       29.91R
HULETT         FAIR      64  45  48 CALM      29.93R
NEWCASTLE      FAIR      64  28  25 E7        29.92R

$$
WYZ014>020-022>026-101>103-060400-
CENTRAL WYOMING

CITY           SKY/WX    TMP DP  RH WIND       PRES   REMARKS
BIG PINEY      FAIR      60  26  27 SE8       30.03S
PINEDALE       FAIR      55  32  41 E5        30.05S
DUBOIS         FAIR      57  30  35 S3        30.06R
LANDER         FAIR      63  33  32 SW9       29.94R
RIVERTON       FAIR      69  35  28 E5        29.96R
CASPER         FAIR      62  34  35 E3        29.98R
DOUGLAS        FAIR      60  41  49 SE7       29.98R

$$
WYZ021-027>030-104>119-060400-
SOUTHERN WYOMING

CITY           SKY/WX    TMP DP  RH WIND       PRES   REMARKS
EVANSTON       FAIR      60  30  32 E8        30.00R
KEMMERER         N/A     61  27  27 SE5       30.03R
FORT BRIDGER   CLEAR     61  32  33 SE6       30.03S
ROCK SPRINGS   FAIR      60  24  25 S5        30.02R
DIXON          FAIR      57  35  43 NE9       30.05R
RAWLINS        FAIR      56  29  35 E10       30.06R
SARATOGA       FAIR      54  32  43 SE6       30.09R
LARAMIE        FAIR      57  34  41 E9        30.12R
CHEYENNE       FAIR      62  34  35 S7        30.07R
TORRINGTON     FAIR      65  41  41 E8        29.93R
PINE BLUFFS    FAIR      59  41  51 SE6       30.02R

$$




USA.gov is the U.S. government's official web portal to all federal, state and local government web resources and services.